[[{"header":{"parameterUnit":"m.s-1","parameterCategory":2,"la1":30.2991,"la2":30.254,"lo1":-89.0895,"lo2":-89.0444,"dy":0.0017,"dx":0.0017,"nx":28,"ny":28,"refTime":"2023-09-22T03:00:00:Z","depth":"0","parameterNumber":2,"parameterNumberName":"U-component_of_CURRENTS"},"data":[0,0,0,0,0,0,0,0,0,0,0,0,0,0,0,0,0,0,0,0,0,0,0,0,0,0,0,0,0,0,0,0,0,0,0,0,0,0,0,0,0,0,0,0,0,0,0,0,0,0,0,0,0,0,0,0,0,0,0.3856,0.3856,0,0.3883,0.3883,0.3883,0.3872,0.3872,0.3871,0.3871,0.385,0.385,0.385,0,0,0,0,0,0,0,0,0,0,0,0,0,0.3833,0.3833,0.3855,0.3856,0.3857,0.3883,0.3883,0.3883,0.3872,0.3872,0.3871,0.3871,0.385,0.385,0.385,0,0,0,0,0,0,0,0,0,0,0,0,0,0.3846,0.3833,0.3855,0.3857,0.3858,0.3883,0.3883,0.3883,0.3872,0.3872,0.3871,0.3871,0.385,0.385,0.385,0.3857,0,0,0.3849,0.3848,0,0,0,0,0,0,0,0,0.3845,0.3846,0.3856,0.3857,0.3858,0.3877,0.3868,0.3873,0.3872,0.3863,0.3871,0.387,0.3857,0.3856,0.3858,0.3856,0.3855,0.3849,0.3848,0.3848,0.3848,0,0,0,0,0,0,0,0.3844,0.3846,0.3863,0.3857,0.3858,0.387,0.3871,0.3869,0.3859,0.3864,0.3864,0.3873,0.3857,0.3859,0.3858,0.3855,0.3849,0.3848,0.3848,0.3848,0.3917,0.3919,0,0,0,0,0,0,0.3847,0.3844,0.3862,0.3864,0.3854,0.3871,0.3872,0.3868,0.386,0.386,0.3873,0.3872,0.386,0.3858,0.3857,0.3918,0.3848,0.3848,0.3848,0.3915,0.3917,0.3919,0,0,0,0,0,0,0.3846,0.3847,0.3861,0.3859,0.3862,0.3872,0.3868,0.3869,0.388,0.3868,0.3866,0.3885,0.3859,0.3857,0.3879,0.3915,0.3848,0.3847,0.3912,0.3916,0.3918,0.4006,0,0,0,0,0,0,0.3845,0.3847,0.3844,0.3858,0.3862,0.3886,0.3869,0.387,0.3887,0.3886,0.3877,0.3874,0.3859,0.388,0.3879,0.3913,0.3847,0.391,0.3914,0.3917,0.4001,0.4012,0.4021,0,0,0,0,0,0.3844,0.3844,0.3843,0.3846,0.3857,0.3888,0.3891,0.3894,0.3889,0.39,0.3904,0.3875,0.3904,0.3882,0.388,0.3914,0.3908,0.3913,0.3917,0.3996,0.4009,0.4021,0,0,0,0,0,0,0.3825,0.3844,0.3843,0.3846,0.3871,0.3887,0.3896,0.3904,0.3916,0.3912,0.3898,0.3897,0.3935,0.3913,0.3889,0.3948,0.3902,0.3907,0.3963,0.3975,0.3986,0.4011,0.3847,0,0,0,0,0,0.3823,0.3833,0.3853,0.3859,0.3868,0.3885,0.3897,0.3905,0.392,0.3924,0.3921,0.3926,0.3952,0.3953,0.3963,0.3987,0.4006,0.401,0.4021,0.403,0.4051,0.411,0.4128,0.3935,0.3935,0.3934,0,0,0.3814,0.3831,0.3831,0.3857,0.3869,0.3903,0.389,0.3915,0.3952,0.392,0.3956,0.3963,0.3969,0.4007,0.4021,0.3992,0.4099,0.4035,0.4043,0.406,0.4117,0.4135,0.4152,0.3938,0.3937,0.3937,0,0,0.382,0.3819,0.3834,0.3861,0.3896,0.3916,0.3929,0.3954,0.397,0.4006,0.401,0.4047,0.405,0.4084,0.4097,0.4171,0.4158,0.4163,0.4228,0.4285,0.4301,0.4316,0.4381,0.4401,0.416,0.416,0.416,0,0.3811,0.383,0.3845,0.3878,0.3904,0.3928,0.3961,0.3993,0.4025,0.4051,0.4025,0.4095,0.4097,0.418,0.4212,0.4197,0.4225,0.4178,0.4299,0.4314,0.4328,0.4391,0.4411,0.4165,0.4164,0.4164,0.4163,0,0.3837,0.3855,0.3869,0.392,0.3955,0.3985,0.4036,0.4072,0.4089,0.4119,0.419,0.4205,0.4248,0.4259,0.4258,0.4364,0.4353,0.4312,0.4268,0.4353,0.4413,0.4434,0.4172,0.417,0.4169,0.4167,0,0,0.3805,0.3871,0.3875,0.3907,0.3977,0.401,0.4083,0.4154,0.4208,0.424,0.4308,0.4372,0.4381,0.4401,0.441,0.4462,0.459,0.4433,0.4433,0.4499,0.4731,0.4676,0.4692,0.4564,0.4568,0.4571,0.4741,0,0.3817,0.3877,0.3913,0.3981,0.4014,0.4071,0.4138,0.4213,0.4264,0.4336,0.4385,0.4446,0.4436,0.4459,0.4522,0.4572,0.4644,0.4549,0.4638,0.4642,0.4583,0.4714,0.4489,0.4617,0.476,0.4764,0.4766,0,0.3827,0.387,0.3925,0.4012,0.4031,0.408,0.4191,0.4258,0.4375,0.4409,0.449,0.4527,0.4645,0.4595,0.4754,0.4691,0.4735,0.4763,0.4769,0.4702,0.4624,0.4552,0.4648,0.458,0.4797,0.4794,0.4792,0,0.3799,0.3878,0.3921,0.3951,0.4054,0.4094,0.4157,0.4273,0.4341,0.4465,0.4536,0.464,0.4722,0.4785,0.4876,0.4817,0.5038,0.4949,0.4952,0.4948,0.4768,0.4742,0.4806,0.5073,0.5072,0.5072,0.5071,0,0.3796,0.3832,0.3907,0.3934,0.3997,0.4078,0.4158,0.4241,0.4364,0.4459,0.4577,0.4672,0.4776,0.4909,0.4937,0.5038,0.5096,0.5011,0.5003,0.4793,0.4769,0.4706,0.4657,0.5078,0.5077,0.5075,0.5074,0,0.3756,0.3805,0.3858,0.3951,0.3983,0.4028,0.4145,0.4208,0.435,0.4486,0.4535,0.474,0.4908,0.5031,0.5159,0.5137,0.5071,0.5224,0.4984,0.4944,0.4807,0.4769,0.4639,0.4505,0.5226,0.5226,0.5225,0,0.3738,0.376,0.3849,0.387,0.3905,0.3978,0.403,0.417,0.4242,0.4511,0.4574,0.4815,0.4948,0.5165,0.5158,0.5234,0.5105,0.5066,0.4901,0.4819,0.4773,0.457,0.4452,0.4709,0.4705,0.4701,0.4699,0,0.37,0.3727,0.3765,0.3814,0.3859,0.392,0.4007,0.4059,0.4242,0.4368,0.4536,0.4673,0.4922,0.4899,0.5055,0.5051,0.4807,0.4993,0.4961,0.444,0.4169,0.4028,0.46,0.4667,0.467,0.4673,0.4674,0.4676,0.3654,0.3664,0.3709,0.374,0.3793,0.3842,0.3833,0.3938,0.4034,0.4172,0.4373,0.4498,0.4631,0.4792,0.4784,0.466,0.462,0.4503,0.4493,0.4318,0.4091,0.4616,0.4632,0.4635,0.4637,0.4639,0.4641,0,0.3581,0.3603,0.3633,0.3655,0.3651,0.3729,0.3793,0.3752,0.3775,0.3967,0.4062,0.4179,0.4234,0.4344,0.4327,0.4186,0.3952,0.4097,0.3761,0.369,0.422,0.4101,0.3935,0.3935,0.3935,0.3935,0.3935,0.3935,0.355,0.3537,0.3548,0.3502,0.3508,0.3458,0.3452,0.3424,0.3501,0.3533,0.3585,0.3716,0.3962,0.4077,0.3996,0.3897,0.3624,0.3424,0.3476,0.3878,0.3913,0.3947,0.3827,0.3607,0.3607,0.2739,0.2733,0.2728]},{"header":{"parameterUnit":"m.s-1","parameterCategory":2,"la1":30.2991,"la2":30.254,"lo1":-89.0895,"lo2":-89.0444,"dy":0.0017,"dx":0.0017,"nx":28,"ny":28,"refTime":"2023-09-22T03:00:00:Z","depth":"0","parameterNumber":3,"parameterNumberName":"V-component_of_CURRENTS"},"data":[0,0,0,0,0,0,0,0,0,0,0,0,0,0,0,0,0,0,0,0,0,0,0,0,0,0,0,0,0,0,0,0,0,0,0,0,0,0,0,0,0,0,0,0,0,0,0,0,0,0,0,0,0,0,0,0,0,0,-0.0201,-0.0202,0,-0.0271,-0.0272,-0.0273,-0.0315,-0.0315,-0.0315,-0.0315,-0.039,-0.0392,-0.0394,0,0,0,0,0,0,0,0,0,0,0,0,0,-0.0176,-0.0176,-0.0201,-0.0202,-0.0202,-0.0271,-0.0272,-0.0274,-0.0315,-0.0315,-0.0315,-0.0315,-0.0389,-0.0392,-0.0394,0,0,0,0,0,0,0,0,0,0,0,0,0,-0.0213,-0.0176,-0.0201,-0.0229,-0.0233,-0.0271,-0.0273,-0.0274,-0.0315,-0.0315,-0.0315,-0.0315,-0.0388,-0.0391,-0.0394,-0.0414,0,0,-0.0404,-0.0405,0,0,0,0,0,0,0,0,-0.0211,-0.0214,-0.0225,-0.0228,-0.0231,-0.0282,-0.0291,-0.032,-0.0315,-0.0286,-0.0315,-0.0315,-0.0353,-0.0359,-0.0376,-0.0418,-0.0421,-0.0404,-0.0406,-0.0407,-0.0408,0,0,0,0,0,0,0,-0.0208,-0.0212,-0.0231,-0.0225,-0.0229,-0.0264,-0.0269,-0.0298,-0.0321,-0.0289,-0.0291,-0.0295,-0.0355,-0.0372,-0.0378,-0.0422,-0.0404,-0.0407,-0.0408,-0.041,-0.0502,-0.0503,0,0,0,0,0,0,-0.0191,-0.0209,-0.0229,-0.0233,-0.0218,-0.0264,-0.0269,-0.0268,-0.0321,-0.0328,-0.0295,-0.0297,-0.0367,-0.0374,-0.038,-0.04,-0.0407,-0.041,-0.0412,-0.0502,-0.0503,-0.0503,0,0,0,0,0,0,-0.019,-0.0192,-0.0226,-0.0221,-0.0228,-0.0264,-0.0262,-0.0269,-0.0281,-0.0325,-0.0333,-0.0298,-0.0368,-0.0376,-0.0401,-0.0403,-0.0411,-0.0414,-0.0501,-0.0502,-0.0503,-0.0443,0,0,0,0,0,0,-0.0189,-0.0191,-0.0185,-0.022,-0.0227,-0.0235,-0.0262,-0.0271,-0.0282,-0.0285,-0.033,-0.0338,-0.0368,-0.0396,-0.0404,-0.0407,-0.0417,-0.05,-0.0501,-0.0503,-0.0444,-0.0442,-0.044,0,0,0,0,0,-0.0188,-0.0173,-0.0184,-0.0187,-0.0217,-0.0234,-0.0241,-0.0269,-0.0282,-0.0281,-0.0316,-0.0336,-0.041,-0.0399,-0.0408,-0.0412,-0.05,-0.0501,-0.0503,-0.0445,-0.0442,-0.044,0,0,0,0,0,0,-0.0153,-0.0177,-0.019,-0.0181,-0.0201,-0.024,-0.0241,-0.0262,-0.0291,-0.0292,-0.0338,-0.0348,-0.0373,-0.0403,-0.039,-0.0446,-0.0461,-0.0464,-0.0414,-0.0412,-0.041,-0.0374,-0.0419,0,0,0,0,0,-0.0143,-0.0144,-0.0169,-0.0164,-0.0169,-0.0205,-0.0216,-0.0233,-0.0262,-0.0275,-0.0307,-0.0349,-0.0389,-0.0405,-0.0441,-0.0465,-0.0477,-0.0478,-0.0476,-0.0474,-0.0453,-0.0493,-0.0491,-0.0508,-0.0508,-0.0508,0,0,-0.0128,-0.0142,-0.0142,-0.0157,-0.0176,-0.0174,-0.0212,-0.0218,-0.022,-0.0278,-0.029,-0.0337,-0.0394,-0.0423,-0.0438,-0.0445,-0.0471,-0.0475,-0.0473,-0.0453,-0.0494,-0.0492,-0.049,-0.0509,-0.0509,-0.0509,0,0,-0.0095,-0.0109,-0.0096,-0.0107,-0.0126,-0.0147,-0.0143,-0.0175,-0.0192,-0.0209,-0.0261,-0.0307,-0.0353,-0.0403,-0.0433,-0.0441,-0.0458,-0.0457,-0.0415,-0.0454,-0.0452,-0.0451,-0.0439,-0.0437,-0.0457,-0.0456,-0.0456,0,-0.0075,-0.0061,-0.0094,-0.0083,-0.0083,-0.0128,-0.0107,-0.0134,-0.0171,-0.0183,-0.0199,-0.0292,-0.0343,-0.0394,-0.0401,-0.0433,-0.0437,-0.0417,-0.0448,-0.0447,-0.0447,-0.0435,-0.0434,-0.0454,-0.0454,-0.0454,-0.0455,0,-0.0032,-0.0021,-0.0012,-0.0013,-0.0019,-0.0009,-0.0042,-0.0054,-0.0079,-0.011,-0.0155,-0.0232,-0.0285,-0.0322,-0.0361,-0.0395,-0.0391,-0.0438,-0.0446,-0.0441,-0.0429,-0.0429,-0.045,-0.0451,-0.0452,-0.0452,0,0,0.0024,0.002,0.0027,0.004,0.0022,0.0027,0.0022,0.0006,0.0009,-0.0049,-0.005,-0.0151,-0.0196,-0.0234,-0.0305,-0.0346,-0.0352,-0.0379,-0.0383,-0.0348,-0.0391,-0.0339,-0.0334,-0.0402,-0.0402,-0.0402,-0.0375,0,0.0073,0.0113,0.0096,0.0137,0.0156,0.0118,0.0121,0.0096,0.0065,0.005,-0.0045,-0.0079,-0.0163,-0.0188,-0.0244,-0.032,-0.0351,-0.0351,-0.0417,-0.0417,-0.0358,-0.0333,-0.0302,-0.0271,-0.0374,-0.0374,-0.0374,0,0.0131,0.0149,0.02,0.0216,0.0223,0.024,0.0244,0.0239,0.0191,0.0162,0.0101,0.0038,-0.0034,-0.0108,-0.022,-0.0211,-0.0288,-0.0351,-0.0353,-0.0322,-0.0365,-0.0301,-0.0267,-0.0482,-0.0374,-0.0374,-0.0374,0,0.0195,0.0227,0.0273,0.0279,0.0286,0.0305,0.0309,0.0279,0.0296,0.0236,0.0258,0.0136,0.0116,-0.0013,-0.0128,-0.0176,-0.0221,-0.0316,-0.034,-0.0336,-0.0329,-0.0323,-0.0494,-0.0394,-0.0395,-0.0395,-0.0395,0,0.0258,0.0297,0.0311,0.0338,0.0403,0.0378,0.0436,0.0409,0.0407,0.0472,0.0329,0.0367,0.014,0.009,-0.0061,-0.0153,-0.017,-0.0304,-0.0326,-0.0305,-0.0298,-0.0501,-0.063,-0.0394,-0.0394,-0.0394,-0.0394,0,0.0322,0.0329,0.039,0.042,0.0437,0.0486,0.0541,0.0583,0.0561,0.065,0.0647,0.0557,0.0504,0.0317,0.0137,-0.0028,-0.0258,-0.0195,-0.0119,-0.0134,-0.0387,-0.0512,-0.0651,-0.0752,-0.0233,-0.0232,-0.0231,0,0.0356,0.0393,0.0463,0.0516,0.0539,0.0604,0.0659,0.0656,0.0728,0.08,0.0873,0.0834,0.0874,0.0641,0.0329,0.0102,-0.0144,-0.0068,-0.0185,-0.0368,-0.0526,-0.0619,-0.0703,-0.0147,-0.0145,-0.0143,-0.0142,0,0.0426,0.0455,0.051,0.0622,0.0701,0.0789,0.0883,0.0971,0.1021,0.1137,0.1292,0.1336,0.1116,0.0881,0.0524,0.0333,-0.0214,-0.0044,-0.0281,-0.0493,-0.056,-0.0677,-0.017,-0.0129,-0.013,-0.0131,-0.0132,-0.0133,0.0488,0.055,0.0634,0.0745,0.0845,0.0992,0.1101,0.1243,0.143,0.1655,0.1659,0.1807,0.1368,0.0894,0.0567,-0.0045,-0.0094,-0.0274,-0.0409,-0.0485,-0.0595,-0.0017,0.002,0.0019,0.0019,0.0018,0.0018,0,0.057,0.0644,0.075,0.0903,0.1041,0.1066,0.1266,0.1411,0.1698,0.1936,0.2128,0.2066,0.1549,0.0955,0.0118,-0.0354,-0.0559,-0.0616,-0.0795,-0.0868,-0.0391,-0.0403,-0.0398,-0.0398,-0.0398,-0.0397,-0.0397,-0.0397,0.0622,0.0743,0.0802,0.105,0.1163,0.1366,0.1498,0.1739,0.1954,0.2302,0.2454,0.2524,0.2068,0.0541,-0.0527,-0.0776,-0.1142,-0.1185,-0.1387,-0.1126,-0.1107,-0.1089,-0.1133,-0.1281,-0.1282,-0.1813,-0.1819,-0.1823]}],[{"header":{"parameterUnit":"m.s-1","parameterCategory":2,"la1":30.2991,"la2":30.254,"lo1":-89.0895,"lo2":-89.0444,"dy":0.0017,"dx":0.0017,"nx":28,"ny":28,"refTime":"2023-09-22T03:00:00:Z","depth":"2","parameterNumber":2,"parameterNumberName":"U-component_of_CURRENTS"},"data":[0,0,0,0,0,0,0,0,0,0,0,0,0,0,0,0,0,0,0,0,0,0,0,0,0,0,0,0,0,0,0,0,0,0,0,0,0,0,0,0,0,0,0,0,0,0,0,0,0,0,0,0,0,0,0,0,0,0,0.2797,0.2798,0,0.2859,0.286,0.286,0.287,0.287,0.2869,0.2869,0.2878,0.2879,0.288,0,0,0,0,0,0,0,0,0,0,0,0,0,0.2772,0.2772,0.2797,0.2798,0.2799,0.2859,0.286,0.2861,0.287,0.287,0.2869,0.2868,0.2878,0.2879,0.288,0,0,0,0,0,0,0,0,0,0,0,0,0,0.2803,0.2772,0.2797,0.2811,0.2813,0.2859,0.286,0.2861,0.287,0.287,0.2869,0.2868,0.2878,0.2879,0.288,0.2902,0,0,0.2883,0.2884,0,0,0,0,0,0,0,0,0.2801,0.2804,0.2808,0.281,0.2813,0.2856,0.2855,0.2872,0.2871,0.2848,0.2869,0.2868,0.2867,0.2869,0.2882,0.2902,0.2903,0.2883,0.2884,0.2885,0.2885,0,0,0,0,0,0,0,0.2799,0.2802,0.2821,0.2809,0.2812,0.2844,0.2846,0.2859,0.286,0.285,0.2851,0.2859,0.2868,0.2881,0.2883,0.2903,0.2883,0.2884,0.2885,0.2886,0.2967,0.2969,0,0,0,0,0,0,0.2788,0.2799,0.2819,0.2823,0.2805,0.2844,0.2847,0.2843,0.2861,0.2864,0.2859,0.2859,0.288,0.2881,0.2883,0.2947,0.2885,0.2886,0.2886,0.2966,0.2967,0.2969,0,0,0,0,0,0,0.2787,0.2789,0.2817,0.2814,0.282,0.2845,0.284,0.2844,0.288,0.2869,0.287,0.2893,0.2879,0.2881,0.2911,0.2946,0.2886,0.2887,0.2964,0.2966,0.2968,0.3052,0,0,0,0,0,0,0.2786,0.2788,0.2791,0.2813,0.2819,0.2843,0.2841,0.2846,0.2885,0.2885,0.2898,0.2896,0.2879,0.2909,0.2912,0.2946,0.2888,0.2962,0.2965,0.2968,0.3047,0.3056,0.3065,0,0,0,0,0,0.2785,0.2783,0.2791,0.2794,0.2819,0.2844,0.285,0.2866,0.2887,0.2898,0.2916,0.2897,0.2929,0.2912,0.2914,0.295,0.2961,0.2964,0.2967,0.3043,0.3055,0.3064,0,0,0,0,0,0,0.2773,0.2785,0.2793,0.2795,0.282,0.2845,0.2868,0.2887,0.2915,0.2924,0.2921,0.2921,0.2959,0.2945,0.2927,0.2981,0.294,0.2945,0.2997,0.3008,0.3017,0.3037,0.2889,0,0,0,0,0,0.2773,0.2777,0.2797,0.2804,0.2822,0.2857,0.2877,0.2887,0.2911,0.2925,0.2935,0.295,0.2974,0.2983,0.2989,0.3025,0.3036,0.3048,0.3056,0.3064,0.3083,0.314,0.3157,0.298,0.298,0.298,0,0,0.2769,0.2781,0.2782,0.2803,0.2834,0.2869,0.2868,0.2901,0.2937,0.2921,0.2976,0.2983,0.2991,0.3026,0.3041,0.302,0.3118,0.3068,0.3075,0.309,0.3146,0.3163,0.3179,0.2983,0.2982,0.2982,0,0,0.2777,0.2784,0.2799,0.2826,0.2867,0.2887,0.2905,0.2941,0.2965,0.301,0.3017,0.3056,0.3074,0.3098,0.3112,0.3179,0.3165,0.3169,0.3233,0.3289,0.3304,0.3318,0.3349,0.3365,0.3172,0.3172,0.3173,0,0.2778,0.2795,0.2809,0.2845,0.2872,0.2905,0.2939,0.2976,0.3015,0.3044,0.303,0.3107,0.3117,0.3188,0.3212,0.3203,0.3217,0.3192,0.3302,0.3316,0.3329,0.3358,0.3374,0.3177,0.3176,0.3176,0.3175,0,0.2798,0.2828,0.2849,0.2901,0.2929,0.2963,0.3009,0.3046,0.3081,0.3115,0.3183,0.3201,0.3247,0.3258,0.3262,0.3357,0.3333,0.3309,0.3278,0.3352,0.3377,0.3393,0.3183,0.3182,0.318,0.3179,0,0,0.2773,0.2844,0.2859,0.2888,0.2959,0.2978,0.3053,0.3117,0.3171,0.3214,0.3291,0.3349,0.3364,0.3383,0.339,0.3445,0.3555,0.3423,0.3424,0.3459,0.3667,0.3591,0.36,0.3549,0.3552,0.3555,0.3646,0,0.2795,0.2845,0.2887,0.2954,0.2983,0.304,0.3109,0.3171,0.3219,0.3299,0.3357,0.3433,0.3411,0.3447,0.35,0.3547,0.3601,0.3532,0.3586,0.3587,0.3516,0.3618,0.3338,0.3391,0.3661,0.3664,0.3666,0,0.2805,0.284,0.289,0.2971,0.2995,0.3047,0.3137,0.32,0.3323,0.3371,0.3451,0.3499,0.3614,0.3578,0.3693,0.3647,0.3675,0.3697,0.37,0.3615,0.3542,0.3362,0.3409,0.3692,0.369,0.3688,0.3686,0,0.2754,0.2843,0.2875,0.2903,0.3003,0.305,0.3115,0.3222,0.3299,0.3434,0.3506,0.3608,0.3695,0.3743,0.3802,0.3761,0.3916,0.3856,0.3808,0.3801,0.3568,0.3535,0.3948,0.3948,0.3948,0.3947,0.3947,0,0.2745,0.2777,0.2857,0.2879,0.2945,0.3025,0.3113,0.3195,0.3343,0.3431,0.3546,0.3622,0.3748,0.3841,0.3853,0.389,0.3958,0.3851,0.3838,0.3586,0.3556,0.3812,0.3795,0.3951,0.395,0.3949,0.3949,0,0.2692,0.2737,0.2783,0.2886,0.2921,0.297,0.3126,0.3184,0.3337,0.3456,0.3524,0.3701,0.3805,0.3899,0.4005,0.3963,0.3999,0.3992,0.3685,0.3634,0.3826,0.3812,0.3939,0.3938,0.3936,0.3935,0.3934,0,0.2667,0.2678,0.2775,0.2799,0.2853,0.2941,0.2999,0.3166,0.3231,0.3461,0.3508,0.3704,0.3772,0.3916,0.3918,0.3951,0.4003,0.3688,0.3561,0.3861,0.3835,0.3823,0.3811,0.3278,0.3272,0.3267,0.3263,0,0.2615,0.2649,0.2689,0.2751,0.2803,0.2865,0.2963,0.3013,0.3189,0.3306,0.343,0.3528,0.3691,0.3614,0.3708,0.367,0.3657,0.3584,0.4005,0.3325,0.3245,0.3217,0.3225,0.3217,0.3222,0.3225,0.3228,0.323,0.2576,0.2592,0.2639,0.2691,0.274,0.2762,0.2764,0.2851,0.2942,0.3052,0.3223,0.3274,0.3359,0.3352,0.3268,0.3222,0.3457,0.3285,0.3297,0.3315,0.3224,0.3147,0.3083,0.3086,0.3089,0.3092,0.3094,0,0.2516,0.2538,0.2573,0.2603,0.2589,0.2679,0.2713,0.2664,0.2668,0.2813,0.2904,0.275,0.2748,0.2828,0.2703,0.2717,0.2658,0.2589,0.2478,0.2529,0.2572,0.2438,0.209,0.2086,0.2082,0.2079,0,0,0.2478,0.2468,0.2483,0.243,0.2459,0.2412,0.2396,0.2342,0.2381,0.2353,0.2392,0.2631,0.2762,0.2384,0.2351,0.2191,0.2328,0.2108,0.2927,0.2848,0.2886,0.3005,0.286,0,0,0,0,0]},{"header":{"parameterUnit":"m.s-1","parameterCategory":2,"la1":30.2991,"la2":30.254,"lo1":-89.0895,"lo2":-89.0444,"dy":0.0017,"dx":0.0017,"nx":28,"ny":28,"refTime":"2023-09-22T03:00:00:Z","depth":"2","parameterNumber":3,"parameterNumberName":"V-component_of_CURRENTS"},"data":[0,0,0,0,0,0,0,0,0,0,0,0,0,0,0,0,0,0,0,0,0,0,0,0,0,0,0,0,0,0,0,0,0,0,0,0,0,0,0,0,0,0,0,0,0,0,0,0,0,0,0,0,0,0,0,0,0,0,0.015,0.0149,0,0.0084,0.0084,0.0083,0.0044,0.0044,0.0044,0.0043,-0.0043,-0.0045,-0.0047,0,0,0,0,0,0,0,0,0,0,0,0,0,0.0185,0.0185,0.015,0.0149,0.0148,0.0085,0.0084,0.0083,0.0044,0.0044,0.0043,0.0043,-0.0042,-0.0045,-0.0047,0,0,0,0,0,0,0,0,0,0,0,0,0,0.015,0.0185,0.015,0.0121,0.0117,0.0085,0.0084,0.0083,0.0044,0.0044,0.0043,0.0043,-0.0041,-0.0044,-0.0048,-0.0059,0,0,-0.0057,-0.0058,0,0,0,0,0,0,0,0,0.0152,0.0149,0.0126,0.0123,0.0119,0.0071,0.0064,0.0034,0.0044,0.0073,0.0043,0.0043,-0.0007,-0.0013,-0.0023,-0.0063,-0.0067,-0.0057,-0.0059,-0.006,-0.0061,0,0,0,0,0,0,0,0.0155,0.0152,0.0125,0.0125,0.0121,0.0091,0.0086,0.0058,0.0036,0.007,0.0067,0.0059,-0.0009,-0.002,-0.0025,-0.0068,-0.0057,-0.006,-0.0062,-0.0063,-0.0123,-0.0123,0,0,0,0,0,0,0.0165,0.0154,0.0127,0.0123,0.0134,0.0091,0.0086,0.0088,0.0037,0.0029,0.0059,0.0057,-0.0014,-0.0022,-0.0029,-0.0033,-0.006,-0.0063,-0.0065,-0.0123,-0.0123,-0.0123,0,0,0,0,0,0,0.0166,0.0164,0.013,0.0136,0.0129,0.0091,0.0093,0.0087,0.0074,0.0028,0.002,0.0053,-0.0015,-0.0024,-0.005,-0.0037,-0.0065,-0.0068,-0.0124,-0.0123,-0.0123,-0.0049,0,0,0,0,0,0,0.0168,0.0165,0.0171,0.0137,0.0129,0.0121,0.0093,0.0086,0.0069,0.0066,0.002,0.0012,-0.0016,-0.0045,-0.0053,-0.0042,-0.007,-0.0124,-0.0123,-0.0123,-0.0052,-0.0047,-0.0042,0,0,0,0,0,0.0169,0.0182,0.0172,0.0168,0.0139,0.0122,0.0116,0.0087,0.0069,0.0072,0.0037,0.0013,-0.0048,-0.0048,-0.0057,-0.0046,-0.0124,-0.0124,-0.0123,-0.0055,-0.0048,-0.0042,0,0,0,0,0,0,0.0199,0.0178,0.0166,0.0171,0.0152,0.0115,0.0112,0.009,0.0064,0.0058,0.0014,0.0004,-0.0013,-0.0042,-0.0041,-0.0063,-0.0089,-0.009,-0.0034,-0.0028,-0.0023,0.0005,-0.0073,0,0,0,0,0,0.0209,0.0211,0.0186,0.0188,0.0183,0.0148,0.0136,0.0117,0.0088,0.0076,0.0044,0.0009,-0.0018,-0.0032,-0.006,-0.0074,-0.0103,-0.0073,-0.0068,-0.0063,-0.0048,-0.009,-0.0087,-0.0121,-0.0121,-0.0121,0,0,0.022,0.0207,0.0208,0.0194,0.0176,0.0181,0.014,0.0128,0.0132,0.007,0.0065,0.0026,-0.0018,-0.003,-0.004,-0.0053,-0.0069,-0.0062,-0.0058,-0.0045,-0.0089,-0.0086,-0.0083,-0.012,-0.012,-0.012,0,0,0.0245,0.0235,0.0247,0.0239,0.0219,0.0201,0.0201,0.017,0.0159,0.0142,0.0102,0.0072,0.0029,0.0006,-0.0014,0.0002,-0.0041,-0.0009,0.0041,-0.0,0.0002,0.0004,-0.0024,-0.0026,-0.0005,-0.0005,-0.0005,0,0.0258,0.0275,0.0248,0.026,0.0263,0.0216,0.0238,0.0219,0.0183,0.0181,0.0151,0.0091,0.0049,0.0039,0.0043,0.0016,-0.0012,0.0023,0.0008,0.0009,0.001,-0.002,-0.0023,-0.0002,-0.0002,-0.0002,-0.0003,0,0.0298,0.0309,0.0317,0.0322,0.0322,0.0329,0.0308,0.0306,0.0279,0.0254,0.0233,0.017,0.0138,0.0116,0.0083,0.0075,0.0052,0.0019,-0.0004,0.0018,-0.0016,-0.0019,0.0004,0.0002,0.0001,0.0,0,0,0.0332,0.0344,0.0348,0.0369,0.036,0.0368,0.0381,0.0384,0.0402,0.0344,0.0356,0.029,0.0248,0.0223,0.0173,0.0136,0.011,0.0088,0.0084,0.0068,0.0029,0.0002,-0.0005,0.0072,0.0072,0.0071,0.0005,0,0.0374,0.0423,0.0413,0.046,0.0489,0.0466,0.0488,0.0481,0.0463,0.046,0.0384,0.0364,0.0291,0.0276,0.0226,0.0145,0.0103,0.0132,0.0003,-0.0001,-0.002,-0.0009,0.0026,-0.0031,0.0001,0.0,-0.0,0,0.0419,0.0451,0.051,0.055,0.0561,0.0578,0.0621,0.0635,0.0615,0.0597,0.0555,0.0488,0.043,0.0356,0.0228,0.025,0.015,0.0076,0.007,0.0021,-0.0034,-0.005,-0.0039,-0.0007,-0.0006,-0.0006,-0.0005,0,0.0475,0.0518,0.0574,0.0587,0.0621,0.0648,0.0669,0.0676,0.0712,0.0685,0.0701,0.0597,0.0563,0.0423,0.026,0.0244,0.0115,0.0068,-0.005,-0.0053,-0.006,-0.0063,-0.0029,-0.0029,-0.0029,-0.0029,-0.0028,0,0.0528,0.0571,0.0604,0.0638,0.0717,0.0714,0.0794,0.0801,0.0821,0.0881,0.0777,0.0792,0.0578,0.0472,0.0303,0.0126,0.0142,-0.0032,-0.0071,-0.0034,-0.0034,-0.0044,-0.0045,-0.0031,-0.0031,-0.003,-0.003,0,0.0574,0.0594,0.0665,0.0719,0.0745,0.0803,0.0885,0.0943,0.0954,0.1032,0.1027,0.0936,0.08,0.0586,0.0361,0.0201,0.0018,-0.0055,0.0009,-0.0022,-0.0134,-0.013,-0.0188,-0.0189,-0.019,-0.0191,-0.0192,0,0.0602,0.0644,0.0732,0.0788,0.0814,0.0901,0.097,0.1006,0.1078,0.1132,0.1176,0.1064,0.1002,0.0666,0.0352,0.0056,0.0013,-0.0105,-0.0141,-0.0117,-0.015,-0.0144,-0.0139,-0.012,-0.012,-0.0121,-0.0121,0,0.066,0.0687,0.0747,0.0869,0.095,0.1055,0.1154,0.1227,0.1291,0.1357,0.1405,0.1354,0.1044,0.0729,0.0319,0.0127,-0.0058,-0.0119,-0.0108,-0.0086,-0.0059,-0.0089,-0.0086,-0.0122,-0.0122,-0.0122,-0.0122,-0.0122,0.07,0.0753,0.0837,0.095,0.1057,0.119,0.1288,0.1388,0.151,0.1602,0.1556,0.1495,0.1154,0.0618,0.0271,-0.0085,-0.0073,-0.0196,-0.0193,-0.019,-0.0171,-0.0148,-0.0223,-0.0223,-0.0224,-0.0224,-0.0224,0,0.0749,0.0814,0.0919,0.1055,0.1176,0.1231,0.1402,0.1489,0.1632,0.1697,0.172,0.1409,0.1061,0.0674,0.0135,-0.0183,-0.0192,-0.0269,-0.0219,-0.0214,-0.0211,-0.0192,-0.0251,-0.0252,-0.0253,-0.0254,0,0,0.0777,0.0876,0.093,0.1127,0.1232,0.1404,0.1506,0.1626,0.1707,0.1753,0.172,0.1633,0.1171,0.0779,0.0347,0.0036,-0.0007,-0.0007,0.0052,0.0168,0.0175,-0.0129,-0.009,0,0,0,0,0]}],[{"header":{"parameterUnit":"m.s-1","parameterCategory":2,"la1":30.2991,"la2":30.254,"lo1":-89.0895,"lo2":-89.0444,"dy":0.0017,"dx":0.0017,"nx":28,"ny":28,"refTime":"2023-09-22T03:00:00:Z","depth":"4","parameterNumber":2,"parameterNumberName":"U-component_of_CURRENTS"},"data":[0,0,0,0,0,0,0,0,0,0,0,0,0,0,0,0,0,0,0,0,0,0,0,0,0,0,0,0,0,0,0,0,0,0,0,0,0,0,0,0,0,0,0,0,0,0,0,0,0,0,0,0,0,0,0,0,0,0,0.1661,0.1662,0,0.1717,0.1718,0.1718,0.1786,0.1787,0.1789,0.179,0.1888,0.1889,0.189,0,0,0,0,0,0,0,0,0,0,0,0,0,0.1557,0.1559,0.1661,0.1662,0.1663,0.1717,0.1718,0.1718,0.1786,0.1788,0.1789,0.1791,0.1887,0.1889,0.1891,0,0,0,0,0,0,0,0,0,0,0,0,0,0.1603,0.1559,0.1661,0.1706,0.1711,0.1717,0.1718,0.1718,0.1785,0.1788,0.179,0.1792,0.1887,0.1889,0.1891,0.186,0,0,0.1897,0.1898,0,0,0,0,0,0,0,0,0.16,0.1606,0.1698,0.1703,0.1709,0.175,0.1717,0.1769,0.1785,0.1753,0.179,0.1793,0.1847,0.1852,0.1852,0.1865,0.1869,0.1897,0.1898,0.1899,0.1899,0,0,0,0,0,0,0,0.1597,0.1604,0.1679,0.1699,0.1706,0.1705,0.1714,0.1726,0.1785,0.1756,0.1762,0.1774,0.1849,0.185,0.1855,0.1871,0.1897,0.1899,0.19,0.19,0.2017,0.2019,0,0,0,0,0,0,0.1599,0.1601,0.1678,0.1681,0.1663,0.1706,0.1716,0.1731,0.1784,0.1795,0.1772,0.1777,0.1845,0.1852,0.1859,0.195,0.1899,0.1901,0.1902,0.2015,0.2017,0.2019,0,0,0,0,0,0,0.1596,0.1605,0.1675,0.1645,0.1655,0.1706,0.1723,0.1732,0.1776,0.1797,0.1808,0.1814,0.1847,0.1856,0.1912,0.195,0.1902,0.1903,0.2013,0.2016,0.2018,0.2054,0,0,0,0,0,0,0.1593,0.1604,0.1632,0.1645,0.1657,0.1712,0.1722,0.1731,0.1779,0.1787,0.1835,0.1844,0.185,0.191,0.1914,0.1952,0.1905,0.201,0.2014,0.2018,0.205,0.2058,0.2064,0,0,0,0,0,0.1589,0.1612,0.1633,0.1643,0.1688,0.1714,0.172,0.1759,0.178,0.1806,0.1842,0.1845,0.1937,0.1912,0.1918,0.1957,0.2009,0.2013,0.2017,0.2047,0.2056,0.2064,0,0,0,0,0,0,0.158,0.1622,0.1645,0.1681,0.1713,0.1728,0.1757,0.1778,0.1823,0.1843,0.1859,0.1871,0.1936,0.1942,0.1914,0.2004,0.1977,0.1982,0.1998,0.2006,0.2013,0.2023,0.1906,0,0,0,0,0,0.1591,0.1626,0.1657,0.1692,0.171,0.1739,0.1761,0.1788,0.182,0.1844,0.1879,0.1917,0.1948,0.1976,0.2003,0.2043,0.2057,0.2077,0.2083,0.2089,0.2103,0.2148,0.216,0.2034,0.2034,0.2034,0,0,0.1598,0.1626,0.1648,0.1694,0.172,0.1749,0.1759,0.1803,0.1838,0.1845,0.1917,0.1943,0.1965,0.2017,0.2047,0.2033,0.2134,0.2095,0.2099,0.2111,0.2154,0.2166,0.2177,0.2037,0.2036,0.2036,0,0,0.1611,0.1655,0.1685,0.1714,0.1765,0.1782,0.1804,0.1846,0.1884,0.1938,0.1959,0.201,0.2059,0.2083,0.2097,0.2158,0.2168,0.2177,0.222,0.2263,0.2274,0.2283,0.2318,0.2331,0.2181,0.2181,0.2181,0,0.1627,0.1661,0.1697,0.1727,0.1758,0.1801,0.1833,0.1867,0.1928,0.1961,0.1976,0.2065,0.2087,0.2141,0.2172,0.2173,0.2201,0.2181,0.2271,0.228,0.2289,0.2323,0.2336,0.2183,0.2183,0.2183,0.2183,0,0.1644,0.169,0.1709,0.1766,0.1801,0.1839,0.1886,0.194,0.1988,0.2021,0.2104,0.2135,0.2191,0.2206,0.221,0.2289,0.2289,0.2271,0.2244,0.2304,0.2336,0.2349,0.2187,0.2186,0.2185,0.2184,0,0,0.1634,0.171,0.1722,0.1753,0.1828,0.185,0.1922,0.1986,0.2039,0.2105,0.2173,0.2232,0.2266,0.2286,0.2303,0.2344,0.2429,0.2347,0.2348,0.2373,0.2534,0.2389,0.2389,0.2431,0.2434,0.2436,0.2531,0,0.1645,0.1698,0.174,0.18,0.183,0.1897,0.1953,0.2022,0.2089,0.2168,0.2218,0.2292,0.229,0.2335,0.2376,0.2424,0.2466,0.2405,0.2482,0.2484,0.234,0.2399,0.2444,0.2541,0.2544,0.2546,0.2547,0,0.1641,0.1681,0.1741,0.1817,0.1838,0.1889,0.1991,0.2051,0.2162,0.2219,0.2302,0.2352,0.2444,0.2425,0.2534,0.2503,0.2532,0.2553,0.2556,0.2418,0.2362,0.2471,0.257,0.2568,0.2567,0.2565,0.2564,0,0.1591,0.1675,0.1724,0.1753,0.185,0.1903,0.1966,0.2076,0.2144,0.2275,0.234,0.2436,0.2513,0.2564,0.2629,0.2599,0.2735,0.2687,0.2579,0.2569,0.2654,0.2643,0.2758,0.2758,0.2758,0.2758,0.2757,0,0.1563,0.1603,0.1713,0.1738,0.1804,0.1888,0.198,0.2057,0.219,0.2262,0.2375,0.2445,0.2559,0.2645,0.2669,0.2673,0.2771,0.2602,0.2587,0.2667,0.2657,0.2663,0.2651,0.2761,0.276,0.276,0.2759,0,0.149,0.1566,0.1627,0.1743,0.1783,0.1837,0.1984,0.2042,0.2185,0.2289,0.2343,0.2501,0.2605,0.2692,0.2792,0.2716,0.2736,0.2711,0.2817,0.2804,0.2528,0.2517,0.258,0.2576,0.2572,0.2569,0.2567,0,0.1452,0.1481,0.1614,0.1655,0.1716,0.1814,0.1872,0.2024,0.2089,0.2294,0.2324,0.2497,0.2576,0.261,0.2706,0.2742,0.2709,0.2691,0.2578,0.2532,0.2513,0.2507,0.2501,0.2561,0.256,0.2559,0.2558,0,0.138,0.145,0.1502,0.1588,0.166,0.1722,0.1824,0.1864,0.203,0.2176,0.2264,0.2331,0.2445,0.2521,0.2584,0.2595,0.2681,0.2652,0.2658,0.2552,0.251,0.2492,0.2491,0.2545,0.2547,0.2548,0.2549,0,0.1335,0.1354,0.144,0.1501,0.1578,0.1604,0.1674,0.1752,0.1842,0.2061,0.209,0.2265,0.2423,0.2448,0.2502,0.2512,0.2456,0.235,0.237,0.2385,0.2275,0.219,0.2128,0,0,0,0,0,0.1284,0.129,0.1339,0.1391,0.1457,0.1508,0.1621,0.1698,0.1859,0.1867,0.1977,0.2071,0.2161,0.2265,0.2237,0.2407,0.246,0.236,0.2347,0.2476,0.2491,0.2379,0,0,0,0,0,0,0.1245,0.1288,0.1302,0.1284,0.1299,0.1355,0.1428,0.1539,0.1562,0.1738,0.1812,0.1939,0.2073,0.2163,0.2197,0.2224,0.217,0.2475,0.2469,0.2468,0.2481,0.2493,0.2383,0,0,0,0,0]},{"header":{"parameterUnit":"m.s-1","parameterCategory":2,"la1":30.2991,"la2":30.254,"lo1":-89.0895,"lo2":-89.0444,"dy":0.0017,"dx":0.0017,"nx":28,"ny":28,"refTime":"2023-09-22T03:00:00:Z","depth":"4","parameterNumber":3,"parameterNumberName":"V-component_of_CURRENTS"},"data":[0,0,0,0,0,0,0,0,0,0,0,0,0,0,0,0,0,0,0,0,0,0,0,0,0,0,0,0,0,0,0,0,0,0,0,0,0,0,0,0,0,0,0,0,0,0,0,0,0,0,0,0,0,0,0,0,0,0,0.0196,0.0196,0,0.0159,0.0159,0.0158,0.0134,0.0134,0.0134,0.0134,0.0076,0.0075,0.0073,0,0,0,0,0,0,0,0,0,0,0,0,0,0.022,0.022,0.0196,0.0196,0.0195,0.0159,0.0159,0.0158,0.0134,0.0134,0.0134,0.0134,0.0076,0.0075,0.0073,0,0,0,0,0,0,0,0,0,0,0,0,0,0.02,0.022,0.0197,0.0179,0.0177,0.0159,0.0159,0.0158,0.0134,0.0134,0.0134,0.0134,0.0077,0.0075,0.0073,0.0067,0,0,0.0067,0.0066,0,0,0,0,0,0,0,0,0.0201,0.0199,0.0182,0.018,0.0178,0.015,0.0146,0.0126,0.0135,0.0151,0.0134,0.0133,0.0099,0.0095,0.009,0.0064,0.0062,0.0067,0.0066,0.0065,0.0064,0,0,0,0,0,0,0,0.0203,0.0201,0.0182,0.0181,0.0179,0.0163,0.016,0.0142,0.0127,0.015,0.0148,0.0143,0.0097,0.0092,0.0088,0.0061,0.0067,0.0065,0.0064,0.0063,0.003,0.0031,0,0,0,0,0,0,0.0208,0.0202,0.0184,0.0181,0.0188,0.0163,0.016,0.016,0.0128,0.0123,0.0143,0.0142,0.0096,0.0091,0.0086,0.0094,0.0065,0.0063,0.0062,0.003,0.0031,0.0031,0,0,0,0,0,0,0.0208,0.0207,0.0185,0.019,0.0186,0.0163,0.0163,0.0159,0.0157,0.0123,0.0117,0.0145,0.0095,0.0089,0.0076,0.0091,0.0062,0.006,0.003,0.003,0.0031,0.0099,0,0,0,0,0,0,0.0209,0.0207,0.0212,0.019,0.0186,0.0182,0.0163,0.0159,0.0153,0.0152,0.0122,0.0116,0.0094,0.0079,0.0074,0.0088,0.0058,0.0029,0.003,0.0031,0.0096,0.0101,0.0106,0,0,0,0,0,0.021,0.022,0.0213,0.021,0.0192,0.0182,0.0179,0.0161,0.0154,0.0157,0.0137,0.0118,0.0079,0.0078,0.0071,0.0085,0.0029,0.003,0.0031,0.0094,0.01,0.0106,0,0,0,0,0,0,0.0232,0.0217,0.0209,0.0214,0.0201,0.0178,0.018,0.0167,0.0154,0.0152,0.0122,0.0115,0.0108,0.0086,0.0085,0.0076,0.0051,0.005,0.0101,0.0107,0.0112,0.0125,0.0057,0,0,0,0,0,0.0239,0.0242,0.0224,0.0226,0.0225,0.0204,0.0198,0.0185,0.0169,0.0163,0.0145,0.0123,0.0106,0.0098,0.0078,0.0075,0.0041,0.0079,0.0084,0.0088,0.0094,0.0056,0.0058,0.0033,0.0033,0.0033,0,0,0.0247,0.0239,0.024,0.0231,0.0221,0.0228,0.02,0.0195,0.0202,0.0158,0.0166,0.014,0.0108,0.0105,0.01,0.0089,0.0076,0.0089,0.0094,0.0097,0.0057,0.0059,0.0061,0.0034,0.0034,0.0034,0,0,0.0266,0.026,0.0271,0.0267,0.0256,0.0245,0.0247,0.0231,0.0227,0.0223,0.0196,0.0181,0.0157,0.0141,0.0128,0.0148,0.0103,0.014,0.018,0.0143,0.0145,0.0146,0.0103,0.01,0.0145,0.0145,0.0145,0,0.0276,0.029,0.0272,0.0284,0.029,0.0259,0.0278,0.0269,0.025,0.0252,0.0234,0.0202,0.0176,0.0172,0.0179,0.0162,0.0128,0.0162,0.015,0.0151,0.0151,0.0106,0.0102,0.0149,0.0148,0.0148,0.0148,0,0.0305,0.0319,0.0327,0.0336,0.0339,0.0348,0.0336,0.0339,0.0328,0.0314,0.0306,0.0267,0.0249,0.0238,0.0216,0.0209,0.0179,0.016,0.0138,0.0158,0.0109,0.0103,0.0154,0.0152,0.0151,0.015,0,0,0.0322,0.0345,0.035,0.037,0.0371,0.0378,0.0394,0.04,0.0416,0.0385,0.0399,0.0363,0.0335,0.0318,0.0284,0.0253,0.0223,0.0213,0.0209,0.0175,0.0133,0.0109,0.0099,0.02,0.0199,0.0199,0.0098,0,0.0353,0.0397,0.0397,0.0441,0.0466,0.0456,0.0479,0.0477,0.0467,0.0471,0.0423,0.0418,0.0367,0.0362,0.0322,0.0251,0.0211,0.0252,0.0114,0.011,0.0091,0.0094,0.0197,0.0093,0.0092,0.0091,0.009,0,0.0384,0.0413,0.0467,0.0508,0.052,0.054,0.0575,0.0591,0.0581,0.0574,0.0548,0.0504,0.0461,0.0414,0.0293,0.0319,0.0234,0.017,0.0164,0.0115,0.0075,0.0068,0.0079,0.008,0.008,0.0081,0.0082,0,0.0412,0.0461,0.051,0.0524,0.0564,0.0591,0.0614,0.0623,0.0653,0.064,0.0649,0.0575,0.0547,0.0434,0.0295,0.0294,0.0149,0.0131,0.0024,0.0021,0.0043,0.0043,0.0041,0.0042,0.0042,0.0042,0.0042,0,0.0444,0.0484,0.0531,0.0559,0.0627,0.0638,0.0703,0.0713,0.0736,0.077,0.0706,0.0699,0.055,0.0447,0.0314,0.0148,0.0158,0.003,-0.0005,0.0073,0.0077,0.0038,0.0039,0.0038,0.0039,0.004,0.0041,0,0.0462,0.0493,0.0555,0.0616,0.0644,0.0692,0.0774,0.0814,0.0828,0.0869,0.087,0.0791,0.065,0.0484,0.0293,0.018,0.0023,-0.0041,0.005,0.0022,-0.0087,-0.0081,-0.0162,-0.0164,-0.0165,-0.0167,-0.0168,0,0.0473,0.0509,0.06,0.0648,0.0679,0.0758,0.0815,0.086,0.0904,0.0917,0.0932,0.0822,0.074,0.0458,0.0275,0.0013,-0.0027,-0.0108,-0.0094,-0.0081,-0.0107,-0.0099,-0.0092,-0.017,-0.017,-0.017,-0.0171,0,0.0494,0.0529,0.0582,0.0685,0.0756,0.0844,0.0923,0.0964,0.1008,0.1021,0.0981,0.0841,0.0677,0.0454,0.0246,0.006,-0.0051,-0.0123,-0.0121,-0.0109,-0.0091,-0.0113,-0.0105,-0.0176,-0.0175,-0.0175,-0.0174,0,0.0508,0.0548,0.0623,0.0712,0.0807,0.0896,0.0943,0.0989,0.1035,0.1043,0.1021,0.0853,0.0758,0.0476,0.0286,0.0098,0.0051,-0.0004,-0.0009,-0.0006,0.0066,0.0113,0.0063,0,0,0,0,0,0.0517,0.0563,0.0645,0.0742,0.0837,0.0899,0.0999,0.1036,0.1076,0.1054,0.1044,0.089,0.0614,0.0497,0.0304,0.0245,0.0008,0.0011,-0.006,-0.0203,-0.0197,-0.0142,0,0,0,0,0,0,0.0522,0.0594,0.0638,0.0751,0.0821,0.093,0.0998,0.103,0.1022,0.103,0.0886,0.0831,0.056,0.0716,0.0294,0.0238,0.0166,-0.0114,-0.0118,-0.0206,-0.0201,-0.0196,-0.0137,0,0,0,0,0]}]]